FW3819 Weather Reports


time (UTC)temp
C
wind
direction
speed
KPH
gust
KPH
rain 1hr
cm
rain 24hr
cm
rain mn
cm
humidity
%
barometer
mb
20260507140231 12 234 1.6 6.4 0.00 0.08 0.05 74 1014.4
20260507135731 11 296 1.6 6.4 0.00 0.08 0.05 74 1014.4
20260507135230 11 289 1.6 6.4 0.00 0.08 0.05 71 1014.4
20260507134730 11 279 1.6 8.0 0.00 0.08 0.05 76 1014.4
20260507134230 11 11 1.6 8.0 0.00 0.08 0.05 70 1014.5
20260507133725 11 54 1.6 8.0 0.00 0.08 0.05 74 1014.6
20260507133225 11 73 1.6 8.0 0.00 0.08 0.05 72 1014.4
20260507133023 11 289 1.6 8.0 0.00 0.08 0.05 72 1014.3
20260507132227 11 234 1.6 8.0 0.00 0.08 0.05 74 1014.4
20260507132020 11 286 1.6 6.4 0.00 0.08 0.05 75 1014.5
20260507131225 11 143 3.2 11.3 0.00 0.08 0.05 73 1014.3
20260507130723 11 18 3.2 11.3 0.00 0.08 0.05 73 1014.0
20260507130223 11 286 1.6 11.3 0.00 0.08 0.05 73 1014.1
20260507125722 11 296 1.6 8.0 0.00 0.08 0.05 73 1014.3
20260507125223 11 279 1.6 6.4 0.00 0.08 0.05 74 1014.3
20260507124724 11 296 1.6 6.4 0.00 0.08 0.05 78 1014.4
20260507124222 11 284 1.6 6.4 0.00 0.08 0.05 77 1014.4
20260507123722 11 326 1.6 6.4 0.00 0.08 0.05 77 1014.3
20260507123223 11 11 1.6 6.4 0.00 0.08 0.05 78 1014.3
20260507123017 11 11 1.6 6.4 0.00 0.08 0.05 77 1014.3
20260507122223 11 273 1.6 6.4 0.00 0.08 0.05 78 1014.3
20260507121723 11 286 1.6 6.4 0.00 0.08 0.05 80 1014.3
20260507121218 11 296 1.6 6.4 0.00 0.08 0.05 79 1014.2
20260507120714 11 82 1.6 6.4 0.00 0.08 0.05 80 1014.1
20260507120215 12 296 1.6 8.0 0.00 0.08 0.05 77 1014.1
20260507115713 12 11 1.6 8.0 0.00 0.08 0.05 81 1014.1
20260507115212 12 300 1.6 11.3 0.00 0.08 0.05 83 1013.9
20260507114713 12 296 1.6 11.3 0.00 0.08 0.05 85 1013.8
20260507114211 12 251 1.6 6.4 0.00 0.08 0.05 87 1013.9
20260507113710 12 353 0.0 4.8 0.00 0.08 0.05 87 1013.7
20260507113509 12 353 1.6 6.4 0.00 0.08 0.05 86 1013.7
20260507112709 12 11 1.6 8.0 0.00 0.08 0.05 86 1013.8
20260507112206 12 54 1.6 8.0 0.00 0.08 0.05 87 1013.7
20260507111708 12 312 1.6 8.0 0.00 0.08 0.05 89 1013.6
20260507111509 12 326 1.6 4.8 0.00 0.08 0.05 90 1013.8
20260507110703 12 353 1.6 4.8 0.00 0.08 0.05 91 1013.8
20260507110206 12 279 0.0 4.8 0.00 0.08 0.05 91 1013.7
20260507105705 12 100 0.0 4.8 0.00 0.08 0.05 91 1013.7
20260507105457 12 234 0.0 4.8 0.00 0.08 0.05 91 1013.7
20260507104703 12 279 0.0 4.8 0.00 0.08 0.05 91 1013.5
20260507104202 12 11 0.0 1.6 0.00 0.08 0.05 92 1013.5
20260507103703 12 326 0.0 1.6 0.00 0.08 0.05 92 1013.5
20260507103202 12 11 0.0 1.6 0.00 0.08 0.05 92 1013.4
20260507102703 12 326 0.0 1.6 0.00 0.08 0.05 92 1013.4
20260507102203 12 73 0.0 1.6 0.00 0.08 0.05 92 1013.3
20260507101702 12 11 0.0 1.6 0.00 0.08 0.05 92 1013.4
20260507101201 12 54 0.0 1.6 0.00 0.08 0.05 92 1013.2
20260507100701 12 100 0.0 1.6 0.00 0.08 0.05 92 1013.3
20260507100202 12 54 0.0 1.6 0.00 0.08 0.05 92 1013.2
20260507095702 12 54 0.0 1.6 0.00 0.08 0.05 92 1013.1
20260507095201 12 279 0.0 1.6 0.00 0.08 0.05 92 1013.4
20260507094702 12 28 0.0 1.6 0.00 0.08 0.05 92 1013.2
20260507094459 12 11 0.0 1.6 0.00 0.08 0.05 92 1013.3
20260507093701 12 143 0.0 1.6 0.00 0.08 0.05 92 1013.3
20260507093202 12 143 0.0 1.6 0.00 0.08 0.05 92 1013.2
20260507092701 12 11 0.0 1.6 0.00 0.08 0.05 92 1013.1
20260507092205 12 325 0.0 1.6 0.00 0.08 0.05 92 1012.9
20260507091703 12 11 0.0 1.6 0.00 0.08 0.05 92 1013.0
20260507091503 12 54 0.0 1.6 0.00 0.08 0.05 91 1013.1
20260507090701 12 54 0.0 4.8 0.00 0.08 0.05 92 1013.1
20260507090201 12 54 0.0 4.8 0.00 0.08 0.05 92 1013.1
20260507085703 12 11 0.0 1.6 0.00 0.08 0.05 92 1013.1
20260507085201 12 54 0.0 1.6 0.00 0.08 0.05 91 1013.0
20260507084703 12 326 0.0 1.6 0.00 0.08 0.05 91 1013.1
20260507084202 12 279 0.0 1.6 0.00 0.08 0.05 92 1013.0
20260507083702 12 54 0.0 4.8 0.00 0.08 0.05 91 1012.9
20260507083204 12 100 0.0 4.8 0.00 0.08 0.05 91 1013.1
20260507082702 12 188 0.0 4.8 0.00 0.08 0.05 91 1013.0
20260507082508 12 54 0.0 4.8 0.00 0.08 0.05 91 1012.9
20260507081703 12 11 0.0 4.8 0.00 0.08 0.05 91 1012.8
20260507081205 12 326 0.0 4.8 0.00 0.08 0.05 91 1012.4
20260507080702 12 326 0.0 4.8 0.00 0.08 0.05 91 1012.3
20260507080201 12 234 0.0 4.8 0.00 0.08 0.05 91 1012.3
20260507075701 12 11 1.6 4.8 0.00 0.08 0.05 91 1012.3
20260507075202 12 100 0.0 4.8 0.00 0.08 0.05 91 1012.2
20260507074703 12 234 0.0 4.8 0.00 0.08 0.05 92 1012.2
20260507074501 12 28 1.6 8.0 0.00 0.08 0.05 91 1012.3
20260507074000 12 54 1.6 8.0 0.00 0.08 0.05 91 1012.2
20260507073506 12 54 1.6 8.0 0.00 0.08 0.05 92 1012.0
20260507072701 12 353 1.6 8.0 0.00 0.08 0.05 92 1012.0
20260507072201 13 21 1.6 6.4 0.00 0.08 0.05 92 1012.0
20260507071702 13 251 1.6 4.8 0.00 0.08 0.05 92 1012.2
20260507071202 13 260 1.6 6.4 0.00 0.08 0.05 92 1012.0
20260507070954 13 37 1.6 11.3 0.00 0.08 0.05 92 1011.9
20260507070204 13 11 1.6 11.3 0.00 0.08 0.05 92 1011.9
20260507065701 13 11 1.6 8.0 0.00 0.08 0.05 92 1012.1
20260507065503 13 234 1.6 6.4 0.00 0.08 0.05 92 1012.2
20260507064702 13 284 1.6 8.0 0.00 0.08 0.05 92 1012.1
20260507064203 13 54 1.6 11.3 0.00 0.08 0.05 92 1012.2
20260507063958 13 100 1.6 11.3 0.00 0.08 0.05 92 1012.2
20260507063203 13 100 3.2 8.0 0.00 0.08 0.05 92 1012.2
20260507062700 13 279 3.2 8.0 0.00 0.08 0.05 92 1012.4
20260507062154 13 279 1.6 11.3 0.00 0.08 0.05 92 1012.1
20260507061649 13 248 1.6 11.3 0.00 0.08 0.05 92 1012.0
20260507061143 13 143 1.6 6.4 0.00 0.08 0.05 92 1011.9
20260507060637 13 11 1.6 6.4 0.00 0.08 0.05 92 1011.9
20260507060138 13 326 1.6 6.4 0.00 0.08 0.05 92 1012.0
20260507055633 13 100 1.6 8.0 0.00 0.08 0.05 91 1012.3
20260507055131 13 255 1.6 8.0 0.03 0.08 0.05 91 1012.3
20260507054929 13 326 1.6 11.3 0.05 0.08 0.05 91 1012.1
20260507054130 13 21 1.6 11.3 0.05 0.08 0.05 91 1012.3
20260507053630 13 282 1.6 6.4 0.05 0.08 0.05 91 1012.4
20260507053131 13 143 1.6 8.0 0.05 0.08 0.05 90 1012.3
20260507052630 13 21 3.2 12.9 0.05 0.08 0.05 90 1012.1
20260507052131 13 305 1.6 12.9 0.05 0.08 0.05 90 1012.1
20260507051921 13 54 1.6 6.4 0.05 0.08 0.05 89 1011.9
20260507051129 13 326 1.6 6.4 0.05 0.08 0.05 89 1012.0
20260507050629 13 82 1.6 11.3 0.05 0.08 0.05 88 1012.0
20260507050421 13 11 1.6 11.3 0.05 0.08 0.05 88 1012.4
20260507045631 13 326 3.2 11.3 0.05 0.08 0.05 87 1012.6
20260507045130 14 116 3.2 11.3 0.03 0.05 0.00 85 1012.8
20260507044629 14 279 1.6 11.3 0.00 0.03 0.00 85 1012.5
20260507044129 14 303 3.2 11.3 0.00 0.03 0.00 83 1012.5
20260507043630 15 262 3.2 22.5 0.00 0.03 0.00 81 1012.3
20260507043124 15 23 4.8 22.5 0.00 0.03 0.00 79 1012.3
20260507042618 15 125 6.4 37.0 0.00 0.03 0.00 77 1012.4
20260507042409 15 241 6.4 37.0 0.00 0.03 0.00 75 1012.5
20260507041902 16 246 3.2 24.1 0.00 0.03 0.00 78 1012.5
20260507041107 16 205 1.6 6.4 0.00 0.03 0.00 80 1012.3
20260507040610 16 11 1.6 8.0 0.00 0.03 0.00 81 1012.0
20260507040402 16 11 1.6 8.0 0.00 0.03 0.00 81 1012.0
20260507035606 16 11 0.0 6.4 0.00 0.03 0.03 81 1011.8
20260507035107 16 268 1.6 8.0 0.00 0.03 0.03 80 1011.7
20260507034858 16 279 1.6 8.0 0.00 0.03 0.03 79 1011.5
20260507034401 16 205 3.2 11.3 0.00 0.03 0.03 78 1011.7
20260507033609 17 265 3.2 12.9 0.00 0.03 0.03 75 1011.9
20260507033108 17 303 3.2 14.5 0.00 0.03 0.03 74 1011.6
20260507032607 17 279 4.8 14.5 0.00 0.03 0.03 72 1011.8
20260507032107 17 258 3.2 12.9 0.00 0.03 0.03 72 1011.9
20260507031607 17 65 4.8 14.5 0.00 0.03 0.03 72 1011.7
20260507031106 17 298 4.8 14.5 0.00 0.03 0.03 72 1011.7
20260507030606 17 255 3.2 12.9 0.00 0.03 0.03 72 1011.4
20260507030108 17 279 3.2 17.7 0.00 0.03 0.03 72 1011.1
20260507025609 17 54 4.8 19.3 0.00 0.03 0.03 73 1011.0
20260507025104 17 289 4.8 19.3 0.00 0.03 0.03 73 1011.2
20260507024604 17 261 4.8 24.1 0.00 0.03 0.03 72 1011.4
20260507024106 18 261 3.2 24.1 0.00 0.03 0.03 72 1011.5
20260507023603 18 296 3.2 11.3 0.00 0.03 0.03 73 1011.4
20260507023102 18 16 3.2 11.3 0.00 0.03 0.03 75 1011.1
20260507022605 18 326 1.6 8.0 0.00 0.03 0.03 75 1011.0
20260507022352 18 326 1.6 12.9 0.00 0.03 0.03 75 1011.1
20260507021603 18 292 3.2 12.9 0.00 0.03 0.03 75 1011.2
20260507021102 18 305 3.2 12.9 0.00 0.03 0.03 75 1011.1
20260507020943 18 279 4.8 19.3 0.00 0.03 0.03 75 1011.0
20260507020938 18 11 4.8 19.3 0.00 0.03 0.03 75 1010.9
20260507015603 18 268 3.2 12.9 0.00 0.03 0.03 75 1010.8
20260507015103 18 341 3.2 14.5 0.00 0.03 0.03 74 1010.6
20260507014603 18 289 3.2 14.5 0.00 0.03 0.03 76 1010.8
20260507014356 19 41 3.2 19.3 0.00 0.03 0.03 77 1010.7
20260507013603 19 11 4.8 25.7 0.00 0.03 0.03 76 1011.0
20260507013101 19 251 4.8 25.7 0.00 0.03 0.03 77 1011.0
20260507012603 19 279 3.2 19.3 0.00 0.03 0.03 78 1010.9
20260507012105 19 242 4.8 19.3 0.00 0.03 0.03 79 1010.9
20260507011604 19 296 4.8 22.5 0.00 0.03 0.03 81 1010.9
20260507011103 19 279 1.6 22.5 0.00 0.03 0.03 82 1010.9
20260507010603 19 178 0.0 4.8 0.00 0.03 0.03 82 1010.7
20260507005602 19 188 1.6 4.8 0.00 0.03 0.03 82 1011.0
20260507005100 19 178 1.6 4.8 0.00 0.03 0.03 83 1010.8
20260507004853 19 117 1.6 4.8 0.00 0.03 0.03 83 1010.7
20260507004354 19 162 0.0 4.8 0.00 0.03 0.03 83 1010.5
20260507003602 19 181 0.0 1.6 0.00 0.03 0.03 84 1010.6
20260507003104 19 234 1.6 4.8 0.00 0.03 0.03 84 1010.6
20260507002600 19 171 0.0 4.8 0.00 0.03 0.03 84 1010.5
20260507002103 20 11 0.0 1.6 0.00 0.03 0.03 83 1010.4
20260507001601 20 54 0.0 4.8 0.00 0.03 0.03 82 1010.3
20260507001100 20 54 1.6 4.8 0.00 0.03 0.03 82 1010.2
20260507000746 20 116 0.0 1.6 0.00 0.03 0.03 81 1010.4
20260507000739 20 100 0.0 1.6 0.00 0.03 0.03 81 1010.3
20260507000714 20 117 0.0 1.6 0.00 0.03 0.03 81 1010.3
20260506235101 20 54 0.0 1.6 0.00 0.03 0.03 80 1010.3
20260506234600 20 143 0.0 1.6 0.00 0.03 0.03 80 1010.3
20260506234100 20 143 0.0 1.6 0.00 0.03 0.03 79 1010.2
20260506233602 20 261 0.0 4.8 0.00 0.03 0.03 79 1010.0
20260506233101 20 54 1.6 4.8 0.00 0.03 0.03 77 1010.0
20260506232600 20 89 1.6 4.8 0.00 0.03 0.03 77 1009.9
20260506232103 20 188 1.6 4.8 0.00 0.03 0.03 76 1010.0
20260506231600 20 100 1.6 6.4 0.00 0.03 0.03 77 1009.8
20260506231102 21 188 3.2 8.0 0.00 0.03 0.03 75 1009.7
20260506230602 21 143 1.6 8.0 0.00 0.03 0.03 75 1009.7
20260506230400 21 171 1.6 6.4 0.00 0.03 0.03 75 1009.5
20260506225559 21 198 3.2 11.3 0.00 0.03 0.03 75 1009.4
20260506225057 21 143 3.2 11.3 0.00 0.03 0.03 75 1009.5
20260506224557 21 162 4.8 12.9 0.00 0.03 0.03 75 1009.5
20260506224054 21 143 4.8 24.1 0.00 0.03 0.03 75 1009.5
20260506223554 21 166 4.8 24.1 0.00 0.03 0.03 74 1009.5
20260506223056 21 208 3.2 14.5 0.00 0.03 0.03 75 1009.5
20260506222557 21 162 3.2 12.9 0.00 0.03 0.03 74 1009.5
20260506222358 21 110 3.2 12.9 0.00 0.03 0.03 73 1009.4
20260506221556 21 143 3.2 11.3 0.00 0.03 0.03 74 1009.3
20260506221054 21 125 3.2 11.3 0.00 0.03 0.03 74 1009.4
20260506220555 21 171 3.2 8.0 0.00 0.03 0.03 73 1009.5
20260506220054 21 162 1.6 8.0 0.00 0.03 0.03 74 1009.4
20260506215852 21 143 3.2 12.9 0.00 0.03 0.03 74 1009.3
20260506215056 21 125 3.2 12.9 0.00 0.03 0.03 73 1009.4
20260506214851 21 203 3.2 12.9 0.00 0.03 0.03 73 1009.4
20260506214054 21 155 3.2 12.9 0.00 0.03 0.03 72 1009.4
20260506213547 21 107 3.2 11.3 0.00 0.03 0.03 72 1009.4
20260506213123 22 160 4.8 17.7 0.00 0.03 0.03 72 1009.2
20260506213109 21 160 3.2 12.9 0.00 0.03 0.03 72 1009.4
20260506212035 22 155 4.8 17.7 0.00 0.03 0.03 71 1009.3
20260506211535 22 125 4.8 17.7 0.00 0.03 0.03 70 1009.2
20260506211337 22 279 6.4 14.5 0.00 0.03 0.03 70 1009.1
20260506210536 22 176 4.8 17.7 0.00 0.03 0.03 72 1009.1
20260506210331 22 166 3.2 17.7 0.00 0.03 0.03 71 1009.1
20260506205533 22 171 3.2 17.7 0.00 0.03 0.03 72 1008.9
20260506205033 21 117 3.2 12.9 0.00 0.03 0.03 72 1008.8
20260506204830 22 172 3.2 12.9 0.00 0.03 0.03 71 1009.0
20260506204032 21 100 4.8 17.7 0.00 0.03 0.03 72 1009.0
20260506203531 21 105 4.8 17.7 0.00 0.03 0.03 71 1009.0
20260506203029 21 186 3.2 14.5 0.00 0.03 0.03 72 1008.8
20260506202529 21 120 3.2 11.3 0.00 0.03 0.03 72 1008.8
20260506202030 21 168 3.2 11.3 0.00 0.03 0.03 72 1009.2
20260506201532 21 136 4.8 12.9 0.00 0.03 0.03 72 1009.1
20260506201031 21 171 4.8 12.9 0.00 0.03 0.03 72 1009.0
20260506200530 21 162 3.2 12.9 0.00 0.03 0.03 72 1009.2
20260506200031 21 108 3.2 12.9 0.00 0.03 0.03 72 1009.1
20260506195530 21 191 4.8 19.3 0.00 0.03 0.03 73 1009.1
20260506195031 21 188 4.8 19.3 0.00 0.03 0.03 72 1009.1
20260506194530 21 123 4.8 14.5 0.00 0.03 0.03 73 1009.1
20260506194029 21 136 4.8 24.1 0.00 0.03 0.03 73 1009.2
20260506193831 21 143 6.4 24.1 0.00 0.03 0.03 72 1009.2
20260506193031 21 167 6.4 22.5 0.00 0.03 0.03 72 1009.2
20260506192833 21 149 6.4 30.6 0.00 0.03 0.03 70 1009.3
20260506192032 22 176 4.8 30.6 0.00 0.03 0.03 71 1009.3
20260506191530 22 158 4.8 17.7 0.00 0.03 0.03 70 1009.2
20260506191031 22 133 4.8 14.5 0.00 0.03 0.03 71 1009.3
20260506190530 21 54 3.2 12.9 0.00 0.03 0.03 73 1009.3
20260506190333 21 155 3.2 14.5 0.00 0.03 0.03 75 1009.3
20260506185531 21 151 4.8 19.3 0.00 0.03 0.03 75 1009.3
20260506185030 20 188 4.8 19.3 0.00 0.03 0.03 74 1009.5
20260506184530 20 160 4.8 24.1 0.00 0.03 0.03 76 1009.5
20260506184330 20 143 4.8 24.1 0.00 0.03 0.03 75 1009.5
20260506183823 20 143 4.8 17.7 0.00 0.03 0.03 77 1009.7
20260506183020 20 181 6.4 17.7 0.00 0.03 0.03 76 1009.8
20260506182514 20 162 6.4 22.5 0.00 0.03 0.03 77 1009.9
20260506182009 20 143 4.8 22.5 0.00 0.03 0.03 75 1010.0
20260506181804 20 143 4.8 22.5 0.00 0.03 0.03 77 1009.8
20260506181004 20 143 6.4 22.5 0.00 0.03 0.03 76 1009.9
20260506180503 20 176 4.8 14.5 0.00 0.03 0.03 76 1010.0
20260506180300 20 100 4.8 25.7 0.00 0.03 0.03 77 1010.1
20260506175502 19 220 6.4 25.7 0.00 0.03 0.03 78 1010.1
20260506175002 19 162 6.4 24.1 0.00 0.03 0.03 78 1010.1
20260506174505 19 117 4.8 19.3 0.00 0.03 0.03 79 1010.2
20260506174003 19 155 4.8 25.7 0.00 0.03 0.03 80 1010.2
20260506173502 18 143 6.4 25.7 0.00 0.03 0.03 80 1010.1
20260506173003 18 157 6.4 19.3 0.00 0.03 0.03 80 1010.3
20260506172502 18 159 6.4 19.3 0.00 0.03 0.03 81 1010.2
20260506172003 18 139 4.8 19.3 0.00 0.03 0.03 81 1010.2
20260506171503 18 198 4.8 22.5 0.00 0.03 0.03 83 1010.2
20260506171002 18 152 6.4 22.5 0.00 0.03 0.03 83 1010.3
20260506170502 18 143 6.4 19.3 0.00 0.03 0.03 83 1010.4
20260506170300 17 169 8.0 29.0 0.00 0.03 0.03 84 1010.5
20260506165502 17 138 8.0 38.6 0.00 0.03 0.03 85 1010.6
20260506165001 17 167 6.4 38.6 0.00 0.03 0.03 84 1010.4
20260506164502 17 169 4.8 24.1 0.00 0.03 0.03 86 1010.4
20260506164001 17 218 4.8 19.3 0.00 0.03 0.03 88 1010.4
20260506163502 17 100 6.4 22.5 0.00 0.03 0.03 88 1010.4
20260506163002 17 196 6.4 24.1 0.00 0.03 0.03 88 1010.6
20260506162503 17 123 4.8 24.1 0.00 0.03 0.03 89 1010.5
20260506162004 17 168 4.8 19.3 0.00 0.03 0.03 90 1010.5
20260506161503 17 129 3.2 19.3 0.00 0.03 0.03 90 1010.5
20260506161002 17 28 4.8 22.5 0.00 0.03 0.03 91 1010.5
20260506160502 16 158 4.8 22.5 0.00 0.03 0.03 90 1010.5
20260506160001 16 187 3.2 14.5 0.00 0.03 0.03 91 1010.6
20260506155501 16 135 3.2 14.5 0.03 0.03 0.03 92 1010.7
20260506155002 16 168 3.2 14.5 0.03 0.03 0.03 92 1010.7
20260506154501 16 234 3.2 11.3 0.03 0.03 0.03 92 1010.6
20260506154001 16 143 1.6 14.5 0.03 0.03 0.03 93 1010.5
20260506153753 16 107 3.2 14.5 0.03 0.03 0.03 93 1010.8
20260506153002 16 94 3.2 14.5 0.03 0.03 0.03 93 1010.9
20260506152459 16 181 3.2 14.5 0.03 0.03 0.03 93 1011.0
20260506151952 16 234 3.2 17.7 0.03 0.03 0.03 93 1010.9
20260506151446 15 92 3.2 17.7 0.03 0.03 0.03 92 1010.9
20260506150944 16 134 3.2 12.9 0.03 0.03 0.03 92 1011.1
20260506150746 16 143 1.6 12.9 0.03 0.03 0.03 93 1011.2
20260506145942 16 82 1.6 8.0 0.03 0.03 0.03 93 1011.0
20260506145443 16 54 3.2 11.3 0.00 0.00 0.00 92 1011.4
20260506144942 16 110 3.2 12.9 0.00 0.00 0.00 92 1011.5
20260506144443 16 178 3.2 14.5 0.00 0.00 0.00 92 1011.6
20260506143940 16 189 3.2 14.5 0.00 0.00 0.00 92 1011.7
20260506143443 15 265 1.6 8.0 0.00 0.00 0.00 92 1011.6
20260506142941 16 77 1.6 6.4 0.00 0.00 0.00 93 1011.5
20260506142439 16 54 1.6 6.4 0.00 0.00 0.00 93 1011.5
20260506141935 16 205 1.6 6.4 0.00 0.00 0.00 92 1011.5
20260506141437 15 153 1.6 6.4 0.00 0.00 0.00 92 1011.6
20260506140937 16 82 1.6 6.4 0.00 0.00 0.00 92 1011.6